Wind_Speed
25 24 23 23 22 21 19 19 19 18 16 16 17 18 18 18 18 19 19 19 19 19 19 18 17 17 17 18 19 19 19 19 19 18 18 19 19 19 17 15 15 15 14 14 14 14 14 16 18 19 18 18 15 13 11 11 12 14 16 16 15 14 14 15 16 15 13 12 12 11 11 10 10 11 10 10 9 9 8 7 7 7 6 6 6
25 24 23 22 21 21 20 19 18 19 19 18 18 20 22 23 24 25 25 24 23 22 21 20 19 19 19 20 20 22 22 22 22 21 20 20 20 21 20 18 16 16 14 13 13 13 16 18 18 19 19 19 18 16 13 12 12 14 16 17 17 16 15 15 16 16 15 14 13 12 12 11 11 11 11 11 10 8 6 5 6 5 5 5 5
24 24 23 23 22 22 22 21 20 20 21 22 23 24 26 28 29 30 29 27 25 24 24 23 22 22 22 22 22 23 24 25 24 24 23 23 22 22 23 22 19 18 16 14 12 13 19 20 19 20 21 21 20 18 16 14 13 13 15 19 19 18 17 17 17 17 17 16 15 13 13 12 12 12 12 12 10 8 6 5 5 4 4 4 4
25 25 25 24 23 23 23 23 23 22 23 25 26 27 28 28 28 30 30 28 26 25 26 26 25 24 24 24 24 24 25 26 27 26 26 26 25 25 25 23 21 20 19 17 14 15 21 24 22 22 22 22 22 20 18 16 14 14 15 18 20 20 19 18 18 18 18 18 17 15 14 14 13 13 13 13 11 8 6 5 5 4 3 3 3
26 26 26 26 25 24 24 24 24 24 24 26 27 29 29 28 29 30 30 28 27 26 26 27 28 28 27 26 26 26 25 26 27 28 28 28 28 27 26 25 23 22 22 20 18 17 21 26 24 22 24 24 22 20 20 17 15 15 15 16 20 22 21 20 19 19 19 19 19 17 16 15 14 14 14 13 12 9 7 6 6 4 2 2 2
26 26 27 28 28 28 27 27 26 26 26 26 27 30 30 30 32 32 31 30 28 27 27 29 30 30 30 29 28 28 28 27 27 29 30 30 30 28 28 28 26 25 25 24 23 22 23 25 25 25 25 25 23 22 20 18 17 16 15 16 18 22 23 22 21 21 20 20 20 19 18 17 16 15 14 14 13 10 8 8 7 4 2 1 1
27 27 29 30 30 31 31 31 30 29 28 28 27 28 29 30 32 33 33 32 31 29 29 29 31 33 33 32 31 30 30 30 29 29 30 32 33 31 30 29 29 28 28 27 26 25 25 25 27 27 26 25 25 24 20 18 17 17 16 16 17 21 24 24 23 22 22 21 21 21 20 19 18 17 16 15 14 12 10 9 8 6 4 2 0
29 29 30 31 31 32 33 33 32 31 30 30 30 30 30 30 31 32 33 33 33 32 31 31 31 33 35 35 34 33 33 33 32 31 30 32 34 35 33 32 31 31 31 29 28 27 28 28 28 27 26 26 25 24 20 18 18 18 17 17 17 19 23 25 25 24 23 23 23 23 22 21 20 18 17 16 15 14 12 10 9 7 5 3 1
30 30 30 31 32 33 35 35 33 32 32 34 34 34 33 33 31 31 32 34 34 34 33 33 33 33 34 36 37 37 37 36 35 34 33 32 33 35 37 36 34 33 33 32 29 29 30 30 29 27 25 23 24 24 20 19 21 20 19 18 18 19 22 25 27 26 25 24 24 25 24 23 22 21 19 18 17 16 14 12 11 9 7 5 3
30 31 32 33 32 34 37 36 34 33 36 40 41 41 39 37 35 32 32 32 33 35 35 35 34 35 35 35 37 38 39 39 38 37 35 34 33 35 37 38 38 37 37 36 34 32 30 29 28 28 25 23 24 25 22 24 26 23 21 22 21 21 21 24 27 28 28 26 26 26 26 25 24 23 22 20 18 17 16 14 13 12 9 7 6
30 30 31 33 33 33 36 37 35 35 40 44 45 45 45 44 41 37 34 32 31 33 35 36 36 36 36 37 37 37 39 40 40 40 38 37 35 35 36 38 39 40 40 39 39 37 33 31 29 28 27 26 27 27 25 28 29 26 25 26 24 22 21 22 25 28 29 29 28 27 27 27 26 24 23 22 20 19 18 16 15 14 12 10 8
34 31 29 30 33 33 34 36 35 36 41 47 49 48 48 49 49 47 43 38 34 32 33 35 37 37 38 38 39 39 39 40 41 42 41 41 39 37 37 39 40 40 41 41 41 40 37 35 33 32 30 29 30 29 28 29 29 28 29 29 26 23 21 21 23 27 30 31 30 29 28 28 27 26 25 24 23 21 19 18 17 16 14 12 11
37 33 28 28 31 32 33 34 34 37 41 46 49 50 50 52 54 55 53 50 44 38 34 34 35 37 39 40 41 41 40 41 42 43 43 44 43 42 40 40 41 41 41 42 43 42 40 39 38 37 35 32 32 32 31 32 32 32 32 31 28 24 22 22 22 24 28 31 32 32 30 29 28 27 27 26 24 23 21 20 19 18 17 15 13
38 33 27 27 29 30 31 32 34 37 41 44 48 50 52 54 57 58 57 57 56 51 42 36 36 36 38 40 41 43 43 43 43 44 44 45 46 46 44 43 42 42 43 43 44 44 43 42 40 39 37 34 35 36 35 35 36 34 35 34 30 27 26 25 24 25 27 30 32 34 33 31 30 29 28 27 26 25 23 22 21 20 19 17 15
39 34 29 28 28 28 29 32 35 37 41 44 47 50 53 55 57 59 60 60 61 61 54 44 38 37 37 39 41 43 44 45 45 45 45 46 47 48 48 47 45 45 45 45 46 46 46 44 42 40 39 36 36 38 38 39 38 35 35 34 31 30 29 28 28 29 29 28 30 33 34 33 32 30 29 28 28 27 26 25 24 22 21 19 17
41 38 33 30 27 27 30 32 35 38 41 44 47 50 53 56 57 58 60 63 64 65 64 57 45 38 37 38 40 43 45 46 47 47 47 47 47 48 49 50 50 48 47 47 47 47 47 46 45 42 40 39 38 39 40 41 41 38 37 36 34 33 32 32 33 33 31 28 28 30 33 34 34 32 31 30 29 28 27 27 26 25 23 21 20
42 43 40 35 30 28 31 35 38 41 43 45 47 50 53 56 59 58 59 63 66 67 68 66 58 46 39 38 39 41 45 47 48 49 49 49 49 49 50 51 52 52 52 51 49 49 49 48 47 45 42 40 40 41 42 44 43 42 41 40 38 36 34 34 36 34 31 30 29 29 30 32 34 34 33 32 30 29 28 28 28 27 25 24 22
41 45 45 40 35 32 34 38 42 43 44 45 47 50 53 56 60 60 59 61 66 69 70 71 68 58 46 39 39 40 43 46 49 50 51 51 52 51 51 51 52 54 55 55 54 52 51 50 49 48 45 42 42 43 44 45 46 44 44 43 40 38 37 36 36 35 33 32 31 29 29 31 33 35 35 34 33 31 30 29 29 29 28 26 24
40 44 47 45 40 36 36 39 42 44 45 46 48 50 53 57 60 61 60 62 65 69 72 73 74 68 56 44 40 39 41 45 48 51 52 52 53 53 54 53 52 53 55 57 58 57 55 53 52 50 49 46 44 44 46 47 49 48 46 46 44 42 40 39 37 36 36 35 32 31 30 30 31 34 36 36 35 34 32 31 30 30 29 28 27
39 41 46 48 43 37 36 38 41 43 44 46 48 50 53 57 60 61 62 63 66 68 71 73 76 75 67 53 43 40 40 42 46 49 53 54 54 55 55 56 55 54 55 57 58 59 59 57 55 53 51 49 47 46 47 49 50 51 49 48 47 45 43 42 40 39 38 37 35 34 33 32 32 33 34 36 36 35 34 33 32 31 31 30 29
39 39 45 47 42 36 34 36 39 42 44 46 47 50 52 55 58 60 62 64 66 67 70 72 75 77 76 64 49 42 40 40 43 46 50 54 55 56 57 57 57 56 57 57 58 59 60 60 59 56 54 53 51 48 48 51 52 53 53 51 49 48 47 45 43 42 41 39 38 38 37 35 35 34 33 33 35 36 36 35 35 33 33 32 31
39 39 43 46 39 33 33 34 37 41 43 45 47 49 52 54 56 59 62 64 66 68 70 72 74 76 78 75 60 46 42 41 41 44 47 51 54 56 58 59 59 59 59 59 58 58 59 60 61 60 58 56 54 52 51 52 53 55 55 54 53 51 50 49 46 45 44 43 42 41 40 39 37 36 35 33 34 35 37 37 37 36 35 33 33
40 40 43 45 38 32 32 33 35 39 42 44 46 48 51 54 55 57 61 65 67 69 71 73 75 76 77 79 72 56 45 42 42 42 45 49 52 55 57 60 61 61 61 61 60 59 59 60 61 62 62 60 58 56 54 54 55 56 57 57 56 54 53 52 50 48 47 47 46 45 44 43 40 39 38 36 35 34 36 37 38 38 37 36 34
42 43 45 43 37 33 33 34 35 39 43 45 46 48 51 54 56 57 60 64 67 71 73 76 77 78 77 78 79 70 55 46 43 42 43 46 49 53 56 59 61 62 63 63 62 61 60 60 61 62 63 64 62 61 59 57 57 57 58 59 59 57 55 54 53 51 49 48 49 49 48 46 45 42 39 37 36 36 36 36 38 39 38 37 36
45 46 45 41 37 35 36 37 37 39 43 46 48 49 52 55 57 59 61 63 67 71 74 77 79 80 80 79 79 79 70 56 48 44 43 44 46 50 54 57 60 63 64 65 64 64 63 62 61 62 62 64 65 65 63 61 60 59 59 60 61 61 59 57 56 55 53 51 50 51 51 50 47 45 42 39 38 39 38 37 37 38 38 38 37
48 47 45 42 40 40 41 41 41 41 44 48 50 52 53 56 58 60 63 64 66 70 74 78 80 82 83 83 81 81 79 67 54 47 44 43 45 47 52 55 58 62 64 65 66 66 66 65 64 63 63 63 65 66 67 66 65 62 61 61 63 64 62 60 58 57 55 54 53 52 52 52 50 47 45 43 42 41 40 38 37 37 38 38 38
49 48 46 45 46 46 47 47 47 46 47 50 53 54 55 57 59 62 64 66 67 71 75 79 82 83 85 86 86 84 84 78 61 50 46 44 44 46 49 53 56 60 63 66 67 67 67 67 67 66 65 64 63 64 67 68 68 67 65 63 64 66 66 64 61 59 57 56 56 55 54 54 53 51 48 46 45 43 41 39 38 36 37 37 37
52 50 48 49 50 51 52 53 54 53 52 52 55 57 57 58 61 63 65 68 70 73 77 80 83 86 86 87 89 89 87 85 70 52 46 45 44 45 48 51 55 58 62 65 68 69 69 69 69 69 68 67 66 64 64 67 69 69 69 66 66 67 68 67 64 61 59 58 58 57 56 56 55 54 51 49 47 45 43 41 38 37 36 36 37
56 54 51 51 53 53 55 57 58 58 55 54 56 59 59 59 62 66 68 69 72 75 78 81 84 87 89 88 90 92 92 90 80 57 46 46 46 46 47 49 52 56 60 64 68 70 70 70 71 70 70 69 69 67 65 65 67 69 70 70 68 68 69 69 67 64 62 61 60 60 59 58 57 56 55 52 50 48 46 43 41 39 37 36 36
58 55 52 54 54 54 56 58 60 60 56 54 57 59 59 60 63 68 69 70 74 77 79 82 85 88 91 91 91 94 95 94 87 65 48 46 47 48 47 48 50 54 59 63 68 71 71 72 73 72 71 70 70 69 68 66 66 68 70 72 71 70 70 70 69 67 65 63 63 62 61 61 60 58 57 56 54 51 49 46 44 41 39 38 37
56 54 55 57 57 55 58 60 61 60 56 55 57 59 60 61 65 70 71 72 75 79 81 83 86 89 92 94 93 95 97 97 91 72 51 45 46 47 48 49 50 52 57 61 67 71 72 72 73 73 73 72 70 70 70 69 67 67 69 73 74 73 72 72 71 70 68 66 65 64 63 63 62 60 59 58 57 55 52 49 47 45 43 41 39
54 57 60 61 61 60 62 62 60 58 57 58 59 60 61 64 68 71 72 74 77 81 84 84 86 89 92 95 96 96 98 99 95 78 56 46 45 46 48 50 50 52 55 59 64 70 73 73 73 74 73 73 73 71 71 71 70 68 68 72 75 76 75 74 74 73 71 69 68 66 65 64 63 62 60 59 59 58 55 52 49 47 45 43 42
56 61 63 63 64 65 64 62 60 58 59 61 61 61 63 65 69 72 74 76 79 84 86 85 86 89 93 97 98 98 99 100 98 83 62 50 46 47 49 51 52 52 53 56 60 67 73 74 74 74 73 72 74 74 73 73 72 70 70 71 74 77 78 77 76 75 74 73 72 70 68 66 64 63 62 61 60 59 58 55 52 49 48 46 44
59 63 64 65 67 68 65 62 61 61 61 61 61 62 63 65 69 73 76 79 83 86 87 85 86 90 94 99 100 99 100 101 100 87 66 55 51 50 51 52 53 53 52 53 57 62 69 74 74 73 74 73 73 74 74 74 73 72 72 72 72 75 79 80 79 76 75 75 74 73 71 69 67 64 63 62 62 60 59 57 55 51 50 48 45
60 63 67 68 69 70 67 64 63 62 61 62 62 63 65 68 72 75 78 83 87 88 87 86 88 91 96 100 101 100 100 101 102 89 69 60 57 55 54 52 53 54 53 52 54 58 64 71 74 72 72 73 74 74 73 75 75 74 74 73 73 74 77 81 82 80 77 75 75 75 74 72 69 67 65 64 63 62 60 59 57 54 51 49 47
59 65 70 70 71 72 68 64 63 62 63 64 65 66 69 72 75 76 81 87 90 88 87 88 90 93 98 101 101 101 100 101 102 89 70 64 64 61 58 54 52 53 54 53 54 55 59 65 71 72 70 71 73 74 73 74 75 76 76 75 75 75 76 79 82 83 80 77 76 76 75 74 72 69 67 65 65 64 62 61 59 56 53 51 48
63 69 71 69 71 71 67 64 63 63 64 67 68 70 72 75 77 80 86 91 91 89 89 90 93 96 100 102 102 102 101 101 100 87 73 70 70 66 61 55 52 51 52 54 54 54 56 61 66 69 69 69 72 74 74 73 74 76 77 78 77 76 76 77 80 83 84 80 77 77 77 75 73 72 69 67 66 66 64 62 60 58 55 52 50
69 71 69 68 70 69 66 64 64 64 66 68 70 72 75 77 79 84 90 92 91 91 92 94 96 98 101 102 102 102 101 102 99 88 79 76 74 70 63 57 53 51 50 52 54 54 56 58 62 66 67 67 69 72 73 73 74 74 75 78 79 79 78 77 78 81 84 84 81 78 78 77 75 73 72 69 68 68 66 64 61 59 57 54 51
71 70 68 69 69 66 64 65 65 65 66 68 71 73 75 78 82 87 91 91 92 93 95 96 97 100 101 102 103 102 102 103 99 89 83 81 77 73 67 59 54 52 50 50 53 54 56 57 59 62 65 66 67 69 71 72 73 74 73 75 78 80 80 78 78 79 82 85 84 81 79 78 77 75 74 72 70 69 68 65 62 60 58 55 52
70 68 67 68 66 63 64 66 66 67 68 70 72 74 76 80 85 89 91 92 94 95 97 98 100 101 102 103 103 102 103 104 99 91 85 82 80 76 70 62 56 53 51 50 51 53 55 57 58 59 62 65 66 66 68 71 72 74 74 73 75 79 81 80 79 80 80 82 85 85 82 80 78 76 75 74 72 71 70 67 64 61 59 56 54
67 65 65 66 65 64 66 68 69 70 70 72 73 75 79 83 86 90 93 95 96 97 98 99 101 102 102 102 103 103 105 105 101 94 87 83 81 77 72 65 58 55 53 51 50 51 53 56 58 58 60 63 66 66 67 69 70 72 74 73 73 77 79 80 81 81 81 81 83 85 85 83 80 77 76 75 74 73 72 70 67 63 60 58 56
67 67 66 66 65 67 70 70 70 70 71 73 75 78 82 86 90 94 97 98 98 98 99 100 101 102 102 102 103 104 106 106 103 96 89 84 81 78 73 67 60 56 53 51 50 50 52 55 58 59 59 61 65 66 68 68 68 69 72 73 74 76 78 79 81 82 83 81 81 83 86 86 82 78 76 75 75 75 73 71 69 66 63 61 59
70 69 68 67 67 70 71 70 71 71 72 75 79 83 87 90 94 97 98 99 99 98 98 99 100 101 102 103 104 105 108 108 105 98 91 85 82 78 73 67 61 57 53 51 50 49 50 53 56 58 59 61 63 65 68 69 69 69 70 71 73 76 77 78 79 82 84 83 81 81 84 87 85 80 77 75 76 75 74 72 71 69 66 63 61
70 69 68 68 69 70 70 70 72 74 77 81 85 89 92 95 98 99 99 98 97 97 99 100 100 101 103 104 105 108 111 111 107 99 90 85 82 78 73 67 62 57 53 50 49 48 49 50 53 56 58 60 62 64 66 68 70 71 70 70 73 76 78 78 79 81 83 84 83 81 82 85 86 83 78 76 76 76 75 73 72 70 68 65 62
69 68 68 69 70 70 70 72 76 80 84 88 91 94 96 99 101 99 96 95 95 98 102 102 101 102 104 105 107 110 112 114 108 97 88 85 83 79 73 67 61 57 53 50 48 48 47 48 50 53 56 57 60 64 65 66 68 71 71 71 73 75 78 80 80 81 82 82 83 83 82 83 86 85 81 78 77 77 77 76 73 71 69 66 63
70 69 69 69 71 74 77 80 84 88 91 94 96 99 100 101 99 95 92 94 97 101 103 102 103 104 105 106 109 111 114 115 106 93 86 86 85 80 75 68 62 57 53 50 48 46 46 46 47 50 52 54 57 61 63 63 65 69 71 72 74 76 78 80 81 83 83 80 81 85 84 82 84 86 84 81 78 77 78 78 75 72 69 66 63
70 70 71 73 77 82 85 88 91 94 97 99 101 101 99 96 94 92 92 96 100 102 102 102 104 105 106 108 110 112 116 114 101 89 86 86 86 82 76 69 63 58 53 50 47 45 44 44 45 47 49 51 53 56 59 59 61 65 67 70 75 76 78 80 82 84 85 81 80 85 86 83 82 86 88 85 80 78 78 78 76 73 70 66 62
72 74 77 80 85 89 92 95 97 99 100 100 99 97 95 95 94 92 93 98 102 103 103 104 106 106 108 110 111 115 117 108 94 87 86 85 84 81 74 68 63 58 53 49 47 44 43 42 43 45 46 47 49 51 54 54 55 58 60 65 71 75 77 80 82 84 86 82 78 83 88 85 81 84 90 90 84 79 79 79 77 74 71 67 63
77 79 83 87 91 95 97 98 98 98 98 97 95 95 96 97 94 90 94 101 104 104 105 107 107 108 110 111 113 117 113 100 89 86 85 84 82 77 71 66 61 57 52 49 46 43 42 41 42 43 43 43 45 47 49 49 49 51 54 58 65 71 74 78 81 83 85 82 78 82 89 88 81 83 91 93 88 82 80 80 78 76 73 69 65
81 85 89 92 94 96 96 95 94 95 95 95 96 98 98 95 91 91 97 103 104 106 108 109 109 110 111 112 116 116 106 93 87 87 85 84 81 74 67 63 59 55 51 47 45 43 40 40 40 41 40 40 41 43 45 46 44 45 48 52 59 65 70 73 78 81 83 83 81 83 89 90 84 83 91 95 91 85 82 81 80 78 75 70 67
87 91 94 95 95 96 95 94 94 95 97 98 99 98 95 92 92 96 101 103 105 109 111 111 111 111 112 115 116 109 96 88 88 88 86 84 78 71 65 60 56 52 49 46 43 41 40 38 38 38 37 37 38 39 41 42 41 41 44 49 54 60 65 69 73 77 80 82 82 83 89 92 87 84 89 95 93 88 84 82 82 80 77 72 69
Wind_Direction
330 331 331 330 330 330 327 317 307 301 294 286 283 284 285 287 296 304 303 301 297 293 290 289 286 282 276 268 261 255 248 243 243 245 244 243 244 246 249 252 254 256 261 266 274 284 287 289 293 293 289 287 286 283 277 266 252 241 233 223 215 212 211 209 206 205 205 205 203 200 196 194 193 187 182 179 169 158 145 132 127 115 93 80 75
335 334 332 330 327 326 325 318 306 297 291 286 283 285 289 290 293 297 297 296 293 287 283 281 282 281 279 274 266 260 255 251 248 246 242 240 242 244 246 248 250 255 258 261 270 280 278 274 280 287 287 283 282 281 278 272 261 248 237 230 222 215 213 211 210 210 210 211 209 206 202 198 196 192 187 184 180 173 161 147 138 121 90 72 70
346 342 338 332 326 320 316 314 309 301 295 289 285 284 286 289 292 293 292 291 289 283 278 274 274 277 279 276 271 263 258 255 253 251 246 241 241 244 246 247 247 251 253 254 260 266 269 267 267 276 282 281 278 277 277 275 268 258 244 234 226 221 217 213 212 213 214 215 215 212 209 204 201 198 192 189 189 187 182 172 155 127 83 58 55
359 355 350 344 336 327 319 313 309 305 301 297 294 292 290 289 290 292 291 290 288 281 276 271 269 270 274 276 275 270 261 256 254 253 250 246 246 245 245 244 243 245 248 249 252 255 263 266 265 269 274 274 272 272 274 274 271 266 256 241 230 224 221 218 215 214 216 219 219 218 216 211 207 204 199 195 196 199 203 193 174 144 91 56 40
8 5 1 356 350 342 334 327 321 315 309 305 300 296 293 288 287 290 291 290 288 282 275 271 268 266 266 270 273 273 269 263 257 253 251 249 249 247 244 243 241 240 241 245 247 246 256 265 267 266 268 266 264 267 270 273 275 271 266 254 239 228 223 221 219 216 216 219 221 222 221 219 213 210 208 205 205 212 215 204 190 173 129 74 34
10 9 9 5 0 355 351 347 341 334 326 316 306 298 294 290 288 289 289 288 287 284 278 272 268 265 263 263 265 270 271 269 263 257 252 250 248 247 245 244 243 240 238 240 244 243 246 256 261 263 267 267 264 264 265 269 275 275 272 266 250 236 227 222 222 220 217 218 222 224 224 224 221 218 215 215 218 222 223 211 202 197 181 139 33
14 14 17 15 10 6 2 359 355 349 342 333 322 312 304 297 292 290 288 287 285 282 280 275 270 267 264 262 261 263 267 269 268 263 257 252 248 246 244 244 243 241 240 240 242 244 246 251 257 264 270 269 263 260 260 264 272 275 275 272 262 246 233 225 223 222 221 219 220 224 226 227 226 224 222 223 225 227 226 218 212 211 207 204 354
18 18 20 21 17 12 9 7 3 359 355 350 343 335 325 315 305 297 291 287 284 281 278 275 272 268 266 264 262 260 261 264 268 267 263 256 251 247 245 244 243 242 242 242 243 245 247 250 254 262 268 267 262 259 259 262 268 273 272 269 266 255 241 231 225 223 223 222 221 224 226 228 228 229 227 227 227 227 228 224 220 217 215 219 269
18 17 19 21 20 15 12 11 9 8 8 7 3 356 347 337 325 312 301 292 286 282 278 275 272 270 267 265 264 263 261 261 263 266 265 261 255 249 245 244 244 243 242 242 243 245 248 249 252 256 259 263 261 255 252 256 261 266 270 266 263 259 247 236 229 226 224 223 223 224 226 228 229 229 229 230 229 227 227 227 225 223 221 224 249
9 11 14 15 14 12 13 13 15 18 18 16 12 9 3 355 344 330 317 304 293 285 280 277 273 270 268 266 265 264 263 262 261 262 263 262 258 253 248 245 245 244 242 240 240 244 247 248 250 252 252 252 251 246 238 240 245 249 256 258 256 256 251 241 233 229 226 225 225 225 226 228 229 229 229 230 230 229 228 228 227 226 227 229 243
350 354 1 5 6 8 13 18 20 20 18 15 12 10 9 7 1 350 335 321 307 294 285 279 274 271 269 267 266 265 263 262 261 261 261 260 259 256 252 248 246 244 243 240 240 243 245 244 243 246 248 243 241 239 233 233 238 241 245 249 249 251 250 245 238 233 229 227 226 226 226 226 228 229 229 228 229 229 230 229 227 227 230 233 242
344 338 338 350 359 5 13 20 21 18 16 15 13 12 12 12 10 6 356 343 327 310 296 285 277 272 269 266 265 265 264 263 261 259 259 259 258 257 254 251 249 246 243 241 241 243 244 243 240 242 245 243 237 235 231 232 238 243 244 243 243 244 246 246 243 238 233 231 228 227 226 226 226 227 228 228 227 228 229 230 229 227 229 234 240
349 343 337 344 356 4 12 18 18 14 13 12 13 14 13 11 10 9 6 1 351 335 315 299 286 276 270 267 264 262 261 262 262 260 258 257 257 256 255 253 251 248 245 242 241 242 244 244 243 244 246 245 238 232 228 228 232 236 238 238 237 240 245 247 246 242 237 234 231 229 228 226 225 225 226 227 227 227 228 229 229 228 228 232 237
354 352 350 351 356 2 8 13 12 10 9 9 10 10 10 9 9 8 7 5 2 356 341 320 302 288 276 269 266 263 260 259 259 260 259 257 255 255 254 253 251 249 248 245 243 244 245 246 246 246 247 245 239 233 229 227 228 231 233 234 233 235 240 242 244 246 242 236 233 232 231 230 227 226 225 226 227 228 229 228 228 227 227 229 234
355 353 349 349 356 1 4 9 9 6 6 5 5 5 5 5 5 6 6 5 3 2 357 342 321 303 288 276 268 265 262 259 257 257 258 258 257 255 254 252 250 249 248 247 247 247 247 247 247 248 247 245 239 234 230 229 230 230 231 233 232 232 235 237 239 241 241 239 237 233 232 233 231 229 227 227 227 228 230 229 228 227 226 227 231
353 351 345 341 349 358 2 5 5 2 1 0 360 360 360 0 0 1 3 4 3 1 0 355 341 321 302 287 274 266 263 261 259 257 255 256 257 256 254 252 250 249 247 247 248 249 249 249 248 247 247 244 239 235 232 230 230 229 229 231 231 228 229 233 235 233 234 237 240 238 234 233 234 233 230 229 228 228 229 229 228 227 227 226 228
347 349 345 338 337 343 351 355 356 355 354 355 355 355 355 355 356 356 357 360 1 1 0 359 353 339 320 301 286 273 265 260 259 258 256 255 255 255 254 253 251 250 248 247 246 247 249 250 249 248 247 245 240 236 233 230 229 229 228 228 228 226 225 229 233 232 231 234 238 241 239 236 234 233 233 231 230 229 228 227 227 227 227 227 228
340 346 344 338 332 329 333 340 344 347 348 349 351 352 352 352 353 353 353 354 356 358 359 359 357 350 336 317 300 284 272 264 258 256 255 255 254 254 253 253 252 250 249 248 247 247 247 248 249 249 247 245 242 237 233 230 229 229 230 228 228 227 225 227 232 232 232 233 233 234 238 239 237 234 233 232 231 230 228 227 226 225 226 227 228
333 340 342 339 334 327 325 332 339 343 345 347 349 350 351 351 351 351 351 350 351 354 356 358 358 355 346 330 314 298 282 271 263 257 254 253 253 252 252 252 251 251 250 249 248 248 247 247 247 248 247 245 243 239 234 231 229 228 229 229 229 229 226 225 227 229 230 232 232 232 233 236 238 237 235 233 232 230 229 227 226 224 224 225 226
327 333 339 338 335 332 328 331 338 342 345 346 347 349 350 350 351 351 350 349 349 350 353 355 357 357 352 341 325 311 295 280 271 264 257 253 251 251 251 251 250 250 250 249 248 248 248 247 247 246 246 245 243 241 236 232 230 228 228 228 230 230 229 226 225 225 227 229 231 232 232 230 233 237 236 235 234 233 230 229 227 225 224 224 224
327 328 335 336 334 334 332 333 339 343 345 346 346 348 349 350 351 351 350 348 348 349 350 352 355 356 355 349 334 319 308 292 278 271 264 258 253 250 249 249 249 249 249 249 248 248 248 247 246 245 245 244 242 242 238 234 231 229 227 227 228 229 230 229 227 225 225 226 227 229 231 230 230 232 233 234 235 234 233 230 228 227 226 225 224
327 325 330 332 330 332 333 334 339 344 346 347 347 347 349 349 350 350 349 349 349 349 349 350 352 354 355 354 345 328 315 304 288 277 270 264 258 254 251 249 248 247 248 248 247 247 247 247 246 245 243 242 242 241 240 236 233 231 229 228 228 229 230 230 229 226 225 225 224 225 227 228 228 229 231 233 234 234 234 232 230 228 228 227 226
323 322 327 329 325 327 332 332 335 340 343 345 346 347 347 348 348 347 348 349 349 350 349 349 350 352 354 355 351 340 323 311 299 285 276 270 264 259 255 252 250 247 246 246 247 246 246 246 246 245 243 242 240 240 240 238 235 232 230 228 228 228 229 230 229 228 226 225 224 223 224 225 225 226 229 231 233 233 233 232 231 229 228 228 227
321 320 324 326 322 320 326 328 328 333 337 340 342 343 344 345 346 345 345 346 348 349 349 349 349 350 351 353 353 349 336 320 308 295 282 274 269 264 259 256 253 251 247 245 245 245 245 245 244 244 243 242 240 239 239 239 237 234 231 230 229 229 230 230 230 229 228 227 224 223 224 224 224 224 227 230 232 233 232 231 231 229 228 227 227
321 320 323 324 321 318 321 324 324 327 331 333 334 336 338 341 343 343 342 343 345 346 347 347 348 348 349 350 351 351 345 330 315 304 291 279 273 268 263 259 256 254 252 248 245 243 243 244 244 243 243 242 241 239 238 239 239 237 233 231 229 229 230 231 231 231 230 229 226 224 225 226 226 225 227 229 230 231 231 229 229 229 228 226 225
322 322 323 323 321 320 321 322 321 323 327 329 329 330 332 335 338 340 341 340 341 342 344 344 345 346 347 348 348 349 348 338 321 309 300 287 278 273 267 263 259 256 255 253 250 246 242 241 242 243 243 241 241 240 239 238 238 238 235 232 229 228 229 230 231 231 231 230 228 227 226 227 228 227 226 227 227 226 227 227 226 227 227 226 224
323 323 323 322 322 321 321 322 321 320 322 326 327 327 328 331 333 335 337 337 337 338 340 341 342 343 344 346 346 346 346 343 328 310 303 295 285 279 273 267 264 259 257 255 254 251 247 242 240 241 243 242 240 239 239 238 237 237 237 234 231 229 228 229 230 230 230 230 229 229 228 228 228 228 227 226 226 225 225 225 224 224 225 225 224
322 323 322 322 322 322 321 321 321 320 319 321 323 324 326 328 329 331 332 333 334 334 336 338 340 340 341 342 343 343 344 344 336 314 301 300 292 284 277 272 268 264 260 257 255 253 252 248 243 240 240 241 241 239 238 238 237 236 237 235 232 230 229 229 230 230 229 229 229 229 230 229 228 228 227 226 225 226 226 224 222 222 223 223 224
320 322 324 323 321 320 320 319 319 320 318 318 320 322 323 325 326 327 328 329 331 332 333 335 336 338 338 338 339 341 341 343 340 323 300 298 297 289 281 274 270 267 264 261 258 254 252 251 249 245 240 239 240 241 238 237 236 236 236 235 234 232 230 230 230 230 230 229 229 229 230 230 229 228 227 227 226 226 226 224 223 222 222 222 222
321 324 326 325 322 319 319 318 317 317 316 316 319 321 321 321 322 324 323 324 327 329 331 332 334 335 336 336 336 337 338 340 340 331 307 295 295 290 284 277 271 268 265 263 261 257 254 251 250 249 246 241 238 239 240 238 236 235 235 235 234 233 231 230 229 230 231 230 229 229 229 229 229 228 227 227 226 226 226 225 224 223 223 223 222
324 326 326 326 324 320 319 319 317 314 312 314 317 319 319 318 320 321 321 321 324 327 328 329 331 333 334 334 334 334 335 337 338 333 316 299 294 289 285 279 273 269 265 263 262 260 257 254 251 250 249 246 242 238 238 238 237 235 234 234 234 234 232 231 230 231 232 231 230 229 229 228 229 228 227 226 226 226 226 226 225 225 225 226 225
325 324 323 323 323 321 319 320 318 313 311 313 315 316 317 317 318 319 319 320 323 325 327 328 330 331 332 332 332 331 332 334 336 333 321 305 296 289 284 279 275 270 267 264 262 261 260 257 254 251 249 248 246 242 238 237 237 235 234 233 233 233 233 232 231 230 231 232 231 230 229 228 228 228 228 227 226 226 226 226 226 226 228 229 229
322 323 322 320 319 319 319 320 319 315 312 311 311 313 315 315 316 316 316 320 322 324 326 327 328 329 330 330 329 329 329 331 334 331 322 310 301 292 284 279 275 272 268 265 263 262 262 259 257 255 252 248 247 245 241 238 236 235 235 234 232 232 233 233 232 231 231 232 232 231 230 229 228 228 228 227 226 226 226 226 226 227 229 231 232
319 322 321 318 317 317 316 317 316 313 311 309 309 311 312 312 313 314 315 319 321 323 324 326 326 327 328 328 327 327 327 329 332 330 322 312 306 298 289 282 277 274 270 267 265 263 263 262 259 256 255 252 248 246 243 240 237 235 234 234 234 232 232 232 233 232 230 231 231 231 231 230 228 228 228 227 225 225 225 226 226 227 229 230 232
316 319 319 317 315 314 313 312 311 309 308 307 308 308 309 311 312 312 315 318 320 322 323 324 325 325 325 326 326 325 325 328 330 329 321 314 309 303 295 286 280 277 273 269 266 264 263 264 262 259 256 254 251 248 245 242 239 236 234 233 234 233 232 231 232 232 231 230 230 231 231 230 229 228 228 227 225 223 224 225 225 226 228 229 230
312 316 317 315 314 312 309 309 308 307 306 307 308 307 308 310 311 312 315 318 319 321 322 323 323 323 323 324 324 324 324 326 329 328 320 315 312 306 300 292 284 279 275 271 267 264 264 264 264 262 258 256 253 251 247 244 240 237 235 233 233 233 233 231 231 231 231 230 229 230 230 230 230 229 228 227 225 223 222 223 224 225 226 228 229
310 314 314 312 311 310 308 307 306 306 306 307 307 307 308 310 311 312 315 316 318 320 321 321 321 321 322 323 322 322 323 324 327 326 320 317 314 308 302 296 287 280 275 272 268 265 263 263 264 264 261 258 255 252 249 246 243 239 236 234 232 232 233 233 231 230 230 229 228 229 229 229 229 229 229 228 226 223 222 222 224 224 225 227 228
311 313 312 310 309 308 306 305 304 304 305 306 306 307 308 309 310 312 313 315 317 318 319 319 319 320 321 321 321 321 321 323 325 324 320 318 315 310 305 298 290 282 275 271 268 265 263 261 262 263 263 260 256 254 251 248 245 241 237 234 233 232 232 232 232 231 230 229 227 227 228 228 228 229 229 228 226 224 223 222 223 224 225 226 227
311 311 309 308 307 305 304 303 303 304 305 305 306 307 308 309 309 310 312 314 316 317 317 317 317 319 320 320 319 319 319 321 323 322 319 318 316 312 307 301 294 286 277 271 267 264 263 261 260 260 261 261 258 255 253 249 246 243 240 235 233 232 231 231 232 232 231 229 227 226 226 227 228 228 228 228 227 225 223 223 223 223 224 225 226
308 308 306 305 303 302 302 302 302 304 305 306 307 307 307 306 307 309 312 314 315 315 315 315 316 318 319 318 318 318 318 320 322 322 320 318 317 313 308 303 297 289 281 273 267 263 262 260 259 258 258 259 259 256 254 251 248 245 242 238 233 232 231 231 231 232 232 230 228 225 224 226 227 227 227 228 227 225 223 222 222 222 223 225 226
304 303 302 301 298 298 300 301 301 302 304 305 306 304 303 303 305 309 311 312 313 313 313 314 316 317 317 317 316 316 317 320 322 321 320 318 316 313 310 305 299 293 285 276 269 264 261 259 258 257 256 256 257 256 254 252 249 246 244 241 236 233 231 229 230 231 232 231 229 226 224 223 225 226 226 226 227 225 223 222 222 222 222 223 225
299 298 296 295 294 295 299 300 300 301 302 303 301 299 299 301 305 308 310 311 312 312 313 314 316 316 316 315 315 314 316 319 321 320 319 318 316 314 311 307 302 295 288 280 273 267 262 259 258 257 255 254 254 254 253 252 250 247 245 243 240 236 232 229 228 230 232 232 231 228 224 222 223 224 224 225 226 225 223 222 222 222 223 223 224
295 294 292 291 292 296 298 298 299 300 299 298 297 297 299 301 305 307 309 310 311 312 313 315 315 315 314 314 313 314 316 319 320 319 318 317 315 314 311 308 303 297 290 284 277 270 265 261 258 257 255 254 253 252 251 251 250 248 245 243 241 238 235 231 228 228 230 231 231 229 226 222 221 222 223 223 224 224 223 223 223 223 223 223 224
291 290 289 290 293 296 296 296 297 296 295 294 295 296 299 301 304 307 308 309 310 312 314 314 314 313 312 312 313 314 316 319 319 318 317 316 315 314 312 309 304 299 293 287 281 274 268 263 259 257 255 254 253 252 250 249 249 248 245 242 240 239 237 235 231 229 228 229 231 231 228 224 220 219 221 222 223 223 223 223 223 223 223 223 224
287 286 286 289 293 294 292 292 292 292 291 292 293 295 298 302 304 306 307 309 311 313 313 313 311 311 311 311 313 314 316 318 318 317 316 316 315 314 313 310 305 300 296 292 285 278 272 267 262 259 256 254 252 251 250 247 246 247 246 242 239 237 236 236 234 232 229 227 228 230 230 225 220 217 219 220 221 222 222 223 224 224 223 223 222
284 283 284 287 289 288 287 288 288 289 290 292 294 297 300 302 304 305 307 310 312 313 312 311 310 311 311 312 313 313 315 317 317 316 316 317 316 316 314 311 307 302 299 294 287 281 275 271 267 264 260 256 254 252 251 248 245 244 244 242 239 236 235 234 234 234 232 227 225 228 230 227 221 216 216 218 219 220 221 222 223 223 221 221 221
281 280 281 283 284 285 286 287 288 289 292 294 297 299 300 302 304 306 308 311 312 311 310 310 310 310 311 312 312 313 315 316 315 314 316 317 317 316 315 312 308 304 300 295 289 283 279 275 271 268 264 260 258 255 253 249 246 244 242 240 239 236 234 233 232 232 233 229 223 224 228 228 222 216 215 216 217 217 219 220 221 220 219 219 219
278 279 279 281 283 285 287 288 290 292 294 296 298 299 300 302 303 305 308 310 310 310 310 310 310 310 311 311 311 312 314 314 313 314 316 316 316 316 314 311 307 304 300 295 290 285 281 278 274 270 267 265 262 259 256 252 247 245 241 238 238 236 233 232 230 230 231 229 222 220 225 227 223 216 214 215 214 215 216 217 218 218 217 218 219
277 279 281 283 285 287 289 291 293 295 296 297 298 299 300 301 302 304 306 308 309 309 309 310 310 310 310 310 311 312 313 312 313 315 316 315 315 315 314 311 307 303 299 296 292 287 284 281 277 273 270 267 264 261 259 255 249 245 241 237 236 235 233 231 229 228 228 227 221 218 221 225 223 216 214 214 213 213 214 215 216 217 217 218 218
280 282 285 287 289 290 293 295 296 297 297 296 297 297 298 299 299 301 304 306 307 308 309 309 309 309 309 309 310 311 311 311 313 315 316 315 315 315 313 310 306 302 299 295 292 288 285 282 279 276 272 269 265 262 260 257 252 246 241 236 234 234 232 230 228 227 226 225 220 216 219 223 222 216 214 213 212 212 213 214 215 216 217 218 218
284 287 289 290 292 293 295 296 296 295 295 295 295 296 297 298 298 301 303 305 306 307 308 309 308 308 307 308 309 310 310 312 315 316 316 316 315 314 313 310 305 301 298 294 291 289 286 283 280 277 273 269 266 263 261 258 254 247 241 236 233 232 231 229 227 226 224 223 219 216 217 220 220 216 214 213 211 211 212 213 215 216 216 217 217
Height
10937 10936 10935 10934 10933 10932 10932 10931 10931 10931 10930 10930 10929 10928 10928 10927 10927 10927 10927 10927 10926 10926 10925 10924 10924 10924 10923 10923 10923 10923 10923 10922 10922 10921 10921 10921 10921 10921 10922 10923 10924 10925 10926 10926 10927 10928 10927 10926 10926 10925 10926 10926 10926 10926 10925 10926 10926 10927 10928 10928 10929 10929 10930 10932 10932 10933 10934 10935 10935 10936 10936 10936 10936 10936 10936 10936 10936 10935 10935 10935 10935 10935 10935 10935 10935
10936 10935 10934 10933 10932 10932 10931 10931 10931 10931 10930 10929 10928 10927 10927 10926 10925 10925 10924 10924 10924 10924 10923 10923 10922 10922 10921 10921 10921 10921 10921 10921 10920 10920 10920 10920 10920 10920 10920 10921 10922 10924 10925 10926 10927 10928 10926 10924 10925 10925 10925 10925 10925 10926 10925 10925 10926 10926 10928 10929 10929 10929 10930 10931 10932 10933 10934 10935 10936 10936 10936 10936 10936 10936 10936 10936 10936 10936 10936 10936 10936 10936 10936 10936 10935
10935 10934 10933 10932 10931 10930 10930 10930 10930 10929 10929 10928 10927 10926 10925 10924 10924 10923 10922 10922 10922 10921 10921 10920 10920 10919 10919 10919 10919 10918 10918 10918 10918 10918 10918 10918 10918 10918 10919 10920 10921 10922 10924 10926 10928 10928 10924 10923 10924 10924 10924 10924 10924 10925 10925 10925 10925 10926 10927 10928 10929 10930 10930 10931 10932 10934 10934 10935 10936 10936 10937 10937 10937 10937 10936 10936 10937 10937 10936 10936 10936 10936 10936 10936 10936
10935 10933 10932 10931 10930 10929 10928 10928 10927 10927 10926 10925 10925 10924 10923 10922 10921 10920 10919 10919 10919 10918 10918 10917 10917 10917 10916 10916 10916 10916 10915 10915 10916 10916 10916 10916 10916 10916 10917 10918 10919 10921 10923 10925 10927 10927 10923 10922 10923 10924 10924 10923 10923 10924 10925 10925 10925 10926 10927 10928 10929 10930 10930 10931 10932 10933 10934 10935 10936 10937 10937 10937 10937 10937 10937 10937 10937 10937 10937 10937 10937 10937 10937 10937 10936
10936 10934 10932 10931 10930 10928 10927 10926 10925 10924 10924 10922 10922 10921 10920 10919 10918 10917 10916 10916 10915 10915 10914 10914 10914 10914 10914 10913 10913 10913 10913 10912 10913 10913 10913 10914 10914 10914 10915 10915 10917 10918 10920 10923 10924 10925 10923 10921 10921 10923 10923 10923 10922 10923 10924 10925 10925 10926 10927 10927 10928 10929 10930 10931 10932 10933 10934 10935 10936 10936 10937 10937 10937 10938 10938 10937 10937 10937 10937 10937 10937 10937 10937 10937 10937
10936 10935 10932 10931 10930 10928 10926 10925 10924 10923 10922 10920 10919 10918 10917 10916 10915 10914 10913 10912 10912 10912 10911 10911 10910 10910 10910 10910 10910 10910 10909 10909 10909 10910 10910 10911 10911 10912 10912 10913 10914 10915 10917 10919 10921 10922 10922 10921 10920 10921 10922 10922 10922 10922 10923 10924 10925 10926 10926 10927 10928 10929 10929 10930 10931 10932 10933 10934 10935 10936 10937 10937 10937 10937 10938 10938 10938 10938 10938 10937 10938 10938 10938 10937 10937
10937 10935 10933 10931 10930 10928 10926 10924 10923 10921 10920 10918 10917 10916 10915 10914 10912 10911 10909 10909 10908 10908 10908 10907 10907 10906 10906 10906 10907 10906 10906 10906 10906 10906 10907 10907 10908 10909 10909 10910 10911 10912 10913 10915 10916 10917 10919 10920 10919 10919 10920 10921 10922 10923 10923 10924 10925 10925 10926 10927 10927 10928 10928 10929 10929 10931 10932 10933 10934 10935 10936 10936 10937 10937 10937 10937 10938 10938 10938 10938 10938 10938 10938 10938 10937
10937 10936 10934 10931 10930 10930 10927 10924 10922 10920 10919 10917 10915 10914 10912 10911 10909 10908 10906 10905 10904 10904 10904 10904 10903 10902 10902 10902 10902 10903 10903 10902 10902 10902 10903 10903 10904 10905 10906 10907 10907 10908 10909 10910 10911 10912 10914 10916 10917 10917 10918 10920 10922 10923 10924 10925 10925 10925 10925 10925 10926 10926 10927 10928 10928 10929 10930 10931 10932 10933 10934 10935 10936 10936 10937 10937 10937 10938 10938 10938 10938 10938 10938 10938 10938
10937 10937 10935 10932 10931 10930 10927 10924 10922 10920 10919 10917 10915 10913 10910 10908 10906 10905 10904 10902 10901 10900 10900 10900 10899 10899 10898 10898 10898 10898 10898 10899 10899 10899 10899 10899 10900 10901 10901 10902 10903 10904 10905 10906 10907 10906 10908 10910 10911 10912 10914 10917 10920 10922 10925 10925 10924 10924 10924 10923 10923 10924 10925 10926 10926 10927 10927 10929 10930 10931 10932 10933 10934 10935 10936 10936 10936 10937 10937 10937 10937 10938 10938 10938 10938
10938 10936 10934 10932 10931 10930 10927 10924 10922 10920 10919 10917 10914 10912 10909 10906 10904 10902 10900 10899 10898 10896 10896 10895 10895 10895 10894 10894 10893 10893 10894 10894 10894 10895 10895 10895 10896 10896 10897 10898 10899 10899 10900 10902 10902 10902 10904 10906 10907 10908 10910 10913 10915 10918 10922 10921 10919 10920 10920 10920 10920 10921 10922 10923 10924 10925 10925 10926 10927 10928 10930 10931 10932 10933 10934 10935 10935 10936 10936 10937 10937 10937 10937 10937 10937
10938 10936 10934 10933 10931 10929 10927 10924 10921 10919 10917 10915 10913 10911 10908 10905 10902 10899 10897 10896 10895 10893 10892 10891 10891 10891 10890 10890 10890 10889 10889 10889 10890 10890 10891 10891 10892 10892 10893 10893 10894 10895 10896 10897 10898 10898 10900 10902 10903 10904 10906 10909 10910 10913 10917 10917 10915 10915 10915 10914 10915 10917 10918 10920 10921 10922 10923 10924 10925 10926 10927 10928 10930 10931 10932 10933 10933 10934 10935 10935 10936 10936 10937 10937 10937
10938 10936 10934 10933 10931 10928 10925 10922 10920 10918 10916 10914 10912 10909 10907 10904 10901 10897 10894 10892 10891 10891 10889 10887 10887 10886 10886 10885 10885 10885 10885 10884 10884 10885 10885 10886 10887 10888 10888 10889 10889 10890 10891 10892 10893 10894 10896 10897 10898 10900 10902 10905 10906 10909 10913 10914 10913 10912 10910 10910 10912 10913 10915 10916 10918 10920 10921 10922 10923 10923 10924 10925 10927 10928 10930 10931 10932 10932 10933 10934 10935 10935 10936 10936 10936
10936 10933 10932 10931 10929 10926 10923 10921 10919 10917 10915 10912 10910 10908 10905 10903 10899 10896 10893 10890 10887 10886 10885 10884 10883 10882 10881 10881 10880 10880 10881 10880 10879 10880 10880 10881 10882 10883 10884 10884 10885 10886 10887 10888 10889 10890 10891 10892 10894 10896 10897 10900 10902 10905 10907 10908 10908 10908 10907 10908 10909 10910 10911 10912 10914 10916 10918 10919 10921 10922 10922 10923 10924 10926 10927 10929 10930 10931 10931 10932 10933 10934 10934 10935 10936
10934 10931 10929 10929 10927 10925 10922 10920 10917 10915 10913 10910 10908 10905 10903 10901 10898 10895 10892 10889 10885 10883 10880 10879 10878 10877 10877 10876 10875 10874 10875 10875 10875 10874 10875 10876 10876 10877 10878 10880 10881 10881 10882 10883 10884 10885 10886 10887 10889 10891 10893 10895 10897 10899 10901 10901 10902 10903 10904 10905 10906 10906 10907 10908 10911 10913 10915 10917 10918 10920 10921 10922 10922 10923 10925 10926 10928 10929 10930 10930 10931 10932 10933 10934 10934
10933 10931 10929 10927 10925 10923 10921 10918 10915 10913 10910 10907 10905 10902 10900 10898 10895 10893 10890 10887 10883 10880 10877 10874 10872 10871 10871 10871 10870 10869 10868 10869 10869 10869 10870 10870 10871 10871 10872 10874 10875 10877 10878 10878 10879 10880 10881 10882 10884 10886 10887 10890 10892 10894 10896 10897 10898 10900 10901 10903 10905 10905 10905 10906 10908 10910 10912 10914 10916 10918 10919 10921 10921 10922 10923 10924 10926 10927 10928 10929 10930 10930 10931 10932 10933
10931 10930 10928 10926 10924 10921 10918 10915 10913 10910 10907 10905 10902 10899 10897 10894 10892 10890 10887 10885 10881 10878 10874 10870 10867 10865 10864 10864 10864 10864 10863 10863 10863 10863 10864 10865 10865 10866 10866 10867 10869 10871 10872 10873 10874 10875 10875 10877 10879 10881 10882 10885 10887 10888 10891 10893 10894 10896 10898 10900 10901 10902 10904 10904 10904 10906 10909 10912 10914 10915 10917 10918 10920 10920 10921 10922 10923 10925 10926 10927 10928 10929 10930 10930 10931
10930 10927 10925 10923 10921 10919 10916 10913 10910 10908 10905 10902 10899 10896 10893 10891 10889 10886 10884 10881 10879 10875 10871 10867 10863 10860 10857 10856 10856 10857 10857 10857 10857 10857 10857 10858 10859 10859 10860 10861 10862 10864 10865 10867 10868 10869 10871 10872 10873 10875 10878 10880 10881 10883 10885 10887 10890 10892 10894 10895 10896 10898 10901 10902 10902 10904 10907 10909 10910 10912 10914 10915 10917 10917 10918 10920 10921 10922 10923 10925 10926 10927 10928 10929 10929
10928 10925 10922 10920 10918 10916 10913 10911 10909 10906 10903 10900 10897 10894 10891 10888 10886 10883 10880 10878 10875 10872 10869 10865 10861 10856 10852 10850 10848 10848 10849 10849 10850 10850 10851 10851 10852 10852 10853 10854 10856 10857 10858 10859 10861 10863 10865 10867 10868 10870 10872 10874 10876 10877 10879 10881 10884 10887 10889 10890 10892 10894 10897 10899 10900 10903 10905 10906 10906 10908 10910 10912 10913 10914 10915 10916 10917 10919 10920 10922 10923 10925 10926 10927 10928
10926 10923 10920 10917 10915 10913 10911 10908 10906 10904 10901 10897 10894 10891 10888 10885 10882 10879 10877 10874 10871 10868 10865 10861 10857 10853 10849 10845 10842 10841 10840 10841 10842 10843 10844 10844 10845 10845 10846 10847 10849 10850 10851 10852 10854 10856 10858 10861 10863 10864 10866 10868 10870 10872 10873 10875 10877 10880 10883 10885 10887 10890 10892 10895 10897 10900 10901 10902 10903 10904 10905 10907 10909 10910 10912 10913 10914 10916 10917 10918 10920 10921 10923 10925 10926
10923 10921 10918 10915 10912 10910 10907 10905 10903 10900 10897 10894 10891 10888 10885 10882 10879 10876 10873 10871 10868 10865 10861 10858 10854 10850 10845 10841 10838 10835 10834 10833 10833 10834 10835 10837 10838 10839 10838 10839 10841 10842 10843 10844 10846 10848 10851 10853 10856 10858 10860 10862 10864 10866 10867 10869 10871 10873 10876 10879 10882 10884 10887 10890 10893 10896 10897 10898 10900 10901 10901 10902 10904 10906 10908 10910 10911 10913 10914 10915 10917 10918 10920 10921 10923
10919 10917 10915 10912 10910 10907 10905 10903 10900 10897 10894 10891 10888 10885 10882 10879 10876 10873 10870 10868 10865 10862 10858 10855 10852 10847 10843 10838 10834 10831 10828 10827 10826 10826 10826 10827 10830 10831 10831 10831 10833 10835 10835 10836 10839 10841 10843 10845 10848 10851 10853 10855 10857 10859 10861 10863 10865 10867 10869 10872 10875 10878 10881 10884 10887 10891 10893 10895 10897 10898 10897 10897 10900 10902 10904 10906 10907 10909 10911 10912 10914 10915 10917 10918 10920
10915 10914 10912 10910 10907 10905 10902 10900 10897 10895 10891 10888 10885 10881 10878 10875 10873 10870 10868 10865 10862 10858 10855 10852 10849 10845 10841 10837 10832 10828 10825 10822 10820 10819 10819 10819 10820 10822 10823 10824 10825 10827 10827 10828 10831 10834 10836 10838 10840 10842 10845 10848 10850 10852 10854 10856 10858 10860 10863 10865 10869 10871 10874 10877 10881 10884 10887 10890 10893 10893 10893 10894 10897 10900 10901 10902 10903 10905 10907 10909 10910 10912 10913 10915 10917
10913 10911 10910 10907 10904 10902 10899 10896 10894 10891 10888 10885 10881 10878 10874 10872 10869 10867 10864 10861 10858 10855 10852 10849 10846 10842 10839 10835 10830 10826 10823 10820 10816 10814 10812 10812 10812 10813 10815 10815 10816 10818 10820 10821 10822 10825 10828 10830 10831 10834 10836 10839 10842 10844 10846 10849 10851 10854 10856 10859 10862 10865 10868 10871 10874 10877 10880 10883 10886 10887 10887 10890 10893 10896 10897 10898 10900 10901 10902 10904 10906 10908 10910 10912 10913
10910 10908 10906 10904 10901 10898 10895 10892 10890 10887 10884 10881 10878 10874 10871 10868 10866 10863 10860 10857 10853 10850 10848 10845 10842 10838 10835 10832 10828 10824 10821 10818 10814 10811 10808 10806 10805 10805 10806 10807 10808 10809 10811 10813 10815 10817 10819 10821 10823 10825 10828 10830 10834 10836 10839 10841 10844 10847 10850 10853 10855 10858 10861 10864 10867 10870 10873 10876 10879 10881 10881 10884 10887 10889 10891 10893 10896 10898 10899 10900 10902 10904 10906 10908 10910
10906 10904 10902 10900 10898 10895 10892 10889 10886 10883 10880 10877 10874 10871 10867 10864 10861 10858 10855 10852 10849 10846 10843 10840 10837 10834 10831 10828 10825 10822 10818 10815 10811 10808 10804 10801 10800 10798 10799 10799 10800 10800 10801 10803 10806 10809 10811 10813 10814 10817 10819 10822 10824 10828 10831 10834 10836 10840 10843 10846 10849 10851 10853 10856 10860 10863 10866 10869 10872 10874 10876 10878 10881 10883 10885 10888 10891 10894 10896 10897 10899 10900 10902 10904 10906
10902 10900 10898 10896 10894 10892 10889 10886 10883 10879 10876 10873 10870 10867 10863 10860 10857 10854 10851 10848 10845 10842 10838 10835 10833 10830 10827 10824 10821 10819 10817 10813 10808 10805 10801 10798 10795 10793 10792 10792 10792 10792 10792 10793 10796 10799 10802 10804 10806 10808 10810 10813 10816 10819 10822 10825 10828 10832 10836 10838 10841 10844 10846 10849 10852 10855 10859 10862 10865 10868 10870 10873 10875 10878 10880 10883 10886 10888 10891 10893 10894 10896 10898 10899 10901
10897 10895 10893 10891 10888 10886 10884 10881 10878 10875 10871 10868 10865 10862 10859 10856 10853 10849 10846 10843 10840 10837 10834 10830 10827 10825 10822 10819 10817 10815 10813 10810 10805 10801 10797 10794 10791 10788 10786 10785 10784 10784 10783 10784 10785 10788 10791 10794 10797 10799 10801 10803 10807 10810 10812 10816 10820 10823 10827 10830 10832 10835 10839 10841 10844 10848 10851 10855 10858 10861 10864 10867 10870 10872 10875 10878 10881 10883 10886 10888 10890 10891 10893 10895 10897
10891 10890 10888 10885 10882 10880 10877 10875 10872 10869 10865 10862 10859 10857 10853 10850 10848 10845 10841 10838 10835 10831 10828 10824 10820 10818 10815 10813 10811 10809 10807 10805 10801 10797 10793 10790 10787 10784 10781 10779 10777 10776 10775 10775 10775 10777 10780 10783 10786 10790 10792 10794 10797 10800 10804 10806 10810 10815 10818 10822 10825 10827 10830 10834 10837 10841 10844 10847 10851 10854 10857 10860 10864 10867 10870 10873 10876 10879 10881 10883 10885 10887 10889 10891 10893
10885 10884 10883 10880 10877 10874 10871 10868 10865 10862 10859 10856 10854 10850 10847 10844 10842 10839 10836 10833 10829 10825 10821 10816 10813 10811 10809 10806 10804 10802 10800 10798 10795 10791 10788 10785 10782 10779 10776 10774 10771 10769 10767 10765 10764 10766 10769 10772 10774 10777 10782 10785 10788 10790 10794 10798 10801 10806 10810 10813 10816 10819 10822 10826 10830 10833 10836 10839 10842 10846 10849 10852 10856 10860 10864 10868 10871 10873 10876 10878 10881 10883 10885 10887 10889
10879 10879 10877 10875 10872 10870 10867 10863 10860 10857 10854 10852 10849 10845 10841 10839 10837 10834 10831 10828 10824 10820 10815 10811 10807 10804 10801 10799 10797 10795 10793 10790 10788 10785 10781 10779 10776 10774 10771 10768 10765 10763 10760 10757 10753 10753 10757 10761 10762 10765 10769 10774 10779 10781 10784 10788 10792 10796 10800 10804 10807 10810 10813 10818 10822 10825 10828 10831 10834 10838 10841 10845 10848 10853 10857 10861 10865 10868 10870 10873 10876 10878 10880 10882 10884
10875 10874 10872 10869 10867 10865 10862 10859 10856 10853 10850 10847 10843 10840 10836 10834 10831 10829 10826 10822 10819 10815 10810 10806 10801 10797 10793 10791 10789 10787 10785 10783 10781 10778 10775 10772 10769 10766 10765 10762 10759 10756 10753 10751 10746 10742 10744 10749 10751 10754 10758 10761 10767 10772 10774 10777 10782 10787 10791 10794 10797 10801 10805 10809 10813 10817 10820 10823 10827 10830 10834 10837 10841 10845 10849 10854 10858 10862 10865 10868 10871 10873 10876 10878 10880
10870 10869 10867 10864 10862 10860 10857 10854 10851 10848 10845 10842 10838 10835 10831 10828 10826 10823 10820 10817 10812 10808 10804 10800 10795 10790 10786 10784 10782 10781 10778 10775 10773 10771 10768 10765 10761 10759 10757 10754 10752 10750 10746 10744 10741 10734 10732 10736 10740 10743 10748 10751 10754 10760 10764 10767 10771 10777 10780 10784 10788 10792 10796 10799 10803 10808 10812 10815 10819 10823 10826 10830 10834 10838 10842 10847 10851 10855 10859 10863 10866 10868 10871 10873 10876
10865 10864 10862 10859 10856 10854 10851 10848 10846 10842 10839 10836 10832 10829 10826 10823 10820 10817 10813 10810 10806 10802 10797 10793 10788 10784 10780 10777 10775 10774 10771 10768 10765 10763 10760 10757 10754 10750 10748 10745 10743 10742 10740 10737 10735 10729 10723 10724 10729 10732 10736 10742 10744 10747 10752 10756 10760 10766 10770 10773 10778 10782 10786 10790 10794 10798 10803 10806 10810 10814 10818 10822 10826 10830 10835 10839 10844 10848 10853 10856 10860 10863 10866 10868 10871
10859 10858 10856 10854 10851 10848 10845 10842 10839 10837 10834 10830 10827 10824 10821 10818 10815 10811 10806 10802 10798 10795 10790 10786 10782 10778 10774 10771 10768 10766 10763 10760 10756 10753 10751 10748 10746 10742 10738 10737 10734 10733 10733 10731 10728 10724 10717 10712 10717 10722 10725 10730 10734 10736 10741 10745 10750 10756 10760 10763 10767 10772 10776 10780 10784 10789 10793 10797 10801 10806 10810 10814 10818 10822 10827 10832 10836 10841 10846 10850 10854 10857 10860 10863 10866
10853 10851 10849 10847 10845 10842 10839 10836 10833 10830 10827 10824 10821 10819 10816 10812 10808 10804 10800 10795 10791 10787 10783 10779 10776 10772 10768 10765 10762 10759 10756 10752 10748 10744 10741 10739 10736 10733 10729 10727 10726 10724 10724 10723 10719 10717 10712 10704 10704 10711 10715 10718 10722 10726 10730 10734 10739 10744 10749 10753 10757 10761 10766 10770 10775 10779 10783 10788 10792 10797 10802 10806 10811 10815 10819 10824 10829 10834 10838 10843 10847 10851 10855 10858 10861
10847 10844 10842 10840 10838 10835 10833 10830 10826 10823 10820 10817 10815 10812 10808 10804 10800 10796 10791 10787 10783 10779 10775 10772 10769 10765 10762 10758 10755 10752 10749 10745 10741 10736 10733 10730 10726 10723 10719 10718 10717 10715 10714 10713 10711 10708 10706 10699 10694 10698 10705 10708 10710 10714 10718 10723 10727 10732 10738 10742 10746 10751 10755 10759 10764 10768 10773 10778 10783 10788 10793 10798 10803 10807 10812 10816 10821 10826 10831 10836 10840 10844 10849 10852 10856
10841 10838 10836 10834 10832 10829 10826 10823 10819 10816 10813 10810 10808 10804 10800 10795 10791 10787 10783 10780 10776 10772 10768 10765 10762 10759 10756 10752 10749 10745 10742 10738 10734 10730 10726 10722 10717 10712 10709 10707 10706 10705 10703 10702 10701 10700 10697 10693 10687 10686 10691 10696 10698 10700 10705 10711 10715 10720 10726 10732 10736 10740 10744 10748 10754 10758 10762 10768 10774 10779 10784 10789 10794 10799 10804 10809 10814 10819 10823 10829 10833 10838 10842 10846 10850
10833 10831 10829 10827 10825 10822 10819 10816 10813 10809 10806 10804 10801 10797 10793 10788 10784 10780 10776 10773 10769 10765 10761 10758 10756 10753 10749 10746 10742 10738 10734 10730 10727 10723 10718 10713 10707 10701 10698 10697 10695 10694 10693 10691 10690 10689 10687 10685 10681 10677 10678 10683 10686 10687 10692 10699 10704 10708 10714 10720 10724 10728 10733 10738 10743 10747 10751 10757 10764 10770 10775 10780 10786 10791 10796 10801 10806 10811 10816 10822 10827 10832 10836 10840 10844
10827 10825 10823 10821 10818 10815 10813 10809 10806 10803 10800 10797 10794 10791 10787 10783 10779 10775 10771 10767 10762 10758 10755 10752 10749 10746 10743 10739 10734 10730 10726 10722 10718 10714 10709 10703 10697 10690 10686 10685 10683 10681 10681 10680 10678 10678 10676 10675 10673 10671 10668 10670 10673 10676 10679 10686 10692 10696 10702 10708 10713 10716 10721 10727 10732 10736 10740 10746 10753 10760 10765 10771 10776 10782 10788 10793 10799 10804 10810 10815 10820 10825 10830 10834 10838
10822 10819 10817 10815 10812 10810 10807 10803 10799 10796 10793 10791 10788 10785 10782 10779 10775 10770 10765 10761 10756 10752 10748 10745 10741 10738 10735 10730 10726 10721 10717 10713 10708 10703 10699 10694 10687 10680 10675 10673 10672 10669 10668 10668 10667 10666 10665 10664 10663 10664 10662 10659 10661 10665 10668 10672 10679 10684 10688 10696 10702 10705 10710 10718 10722 10724 10729 10735 10742 10749 10756 10761 10767 10773 10779 10785 10791 10796 10802 10807 10813 10818 10823 10827 10831
10817 10814 10811 10809 10806 10804 10801 10797 10793 10790 10787 10785 10783 10780 10777 10773 10769 10764 10758 10753 10749 10745 10741 10737 10733 10729 10726 10722 10718 10713 10708 10703 10698 10693 10689 10685 10678 10670 10665 10662 10660 10658 10656 10656 10655 10655 10654 10652 10651 10653 10654 10651 10650 10654 10656 10659 10665 10671 10675 10682 10690 10694 10699 10706 10711 10713 10718 10724 10731 10738 10745 10751 10757 10764 10771 10777 10783 10788 10794 10799 10805 10810 10815 10820 10824
10812 10808 10806 10803 10801 10798 10794 10790 10787 10784 10781 10779 10777 10773 10769 10766 10762 10757 10751 10746 10741 10737 10734 10730 10725 10720 10717 10714 10709 10704 10699 10694 10689 10683 10679 10674 10668 10661 10655 10651 10648 10646 10644 10643 10644 10644 10643 10641 10640 10642 10643 10643 10641 10643 10645 10647 10652 10658 10663 10669 10676 10682 10687 10694 10699 10702 10706 10713 10720 10727 10735 10742 10749 10756 10763 10770 10776 10780 10786 10793 10798 10803 10807 10812 10817
10806 10802 10799 10797 10795 10792 10787 10783 10780 10778 10776 10774 10771 10766 10761 10758 10754 10749 10743 10738 10733 10729 10725 10721 10717 10712 10709 10705 10700 10695 10689 10684 10679 10673 10669 10664 10657 10650 10645 10640 10636 10634 10633 10632 10632 10632 10631 10630 10629 10630 10631 10632 10632 10633 10634 10636 10639 10645 10651 10657 10663 10668 10675 10682 10688 10690 10694 10702 10710 10717 10724 10732 10741 10749 10756 10763 10768 10773 10780 10786 10790 10794 10799 10804 10810
10800 10797 10793 10791 10789 10785 10781 10777 10774 10771 10769 10767 10762 10758 10753 10750 10746 10741 10736 10731 10725 10720 10716 10713 10710 10706 10701 10696 10691 10685 10679 10674 10669 10663 10658 10652 10646 10639 10634 10630 10626 10622 10622 10621 10621 10620 10620 10619 10618 10618 10619 10621 10621 10622 10623 10627 10629 10632 10638 10646 10651 10656 10662 10669 10675 10678 10683 10691 10700 10707 10714 10722 10732 10741 10748 10755 10761 10767 10773 10778 10782 10787 10793 10798 10805
10794 10791 10788 10786 10783 10780 10775 10771 10768 10764 10761 10757 10753 10749 10745 10741 10737 10733 10728 10723 10717 10711 10706 10704 10701 10698 10693 10688 10683 10676 10669 10663 10659 10654 10648 10641 10634 10628 10623 10619 10615 10612 10611 10611 10609 10608 10608 10608 10607 10606 10608 10609 10609 10609 10612 10617 10619 10620 10625 10633 10638 10644 10650 10655 10661 10665 10670 10681 10692 10698 10702 10711 10722 10733 10740 10746 10752 10759 10765 10770 10775 10781 10787 10793 10799
10788 10786 10783 10781 10777 10772 10768 10765 10760 10755 10751 10748 10744 10740 10736 10731 10727 10724 10719 10713 10707 10702 10698 10695 10692 10688 10683 10678 10673 10667 10660 10654 10649 10645 10639 10631 10623 10617 10612 10608 10604 10602 10601 10600 10598 10598 10597 10597 10596 10595 10596 10597 10597 10597 10600 10605 10609 10609 10613 10619 10624 10631 10637 10642 10648 10652 10657 10671 10683 10687 10692 10700 10711 10724 10732 10736 10743 10751 10757 10762 10767 10774 10780 10786 10793
10782 10780 10777 10773 10768 10763 10759 10756 10751 10746 10742 10739 10734 10729 10726 10722 10718 10714 10709 10703 10699 10695 10691 10687 10683 10679 10673 10669 10664 10658 10652 10646 10641 10636 10631 10623 10614 10608 10603 10598 10594 10592 10591 10589 10588 10588 10587 10587 10586 10585 10585 10585 10586 10586 10587 10592 10596 10598 10603 10607 10609 10616 10624 10628 10635 10639 10643 10658 10673 10679 10682 10688 10699 10714 10722 10725 10733 10742 10748 10753 10760 10766 10774 10780 10787
10776 10773 10769 10764 10759 10753 10748 10745 10741 10737 10733 10729 10724 10720 10717 10713 10709 10704 10699 10695 10692 10688 10684 10680 10675 10670 10665 10660 10655 10649 10643 10638 10633 10628 10622 10615 10607 10600 10594 10588 10584 10581 10580 10579 10579 10578 10577 10577 10576 10575 10575 10575 10575 10575 10576 10580 10584 10586 10592 10595 10596 10602 10609 10614 10621 10627 10631 10644 10662 10671 10671 10675 10689 10704 10710 10713 10723 10732 10738 10745 10752 10759 10766 10773 10780
10769 10765 10760 10756 10751 10744 10739 10735 10732 10727 10722 10718 10714 10711 10708 10704 10700 10696 10692 10689 10685 10681 10676 10671 10666 10661 10656 10651 10646 10640 10634 10630 10624 10618 10612 10605 10598 10592 10585 10579 10575 10572 10571 10570 10569 10569 10568 10568 10567 10566 10566 10566 10566 10565 10565 10568 10573 10575 10580 10584 10584 10588 10595 10601 10608 10614 10619 10633 10651 10661 10660 10663 10678 10692 10697 10702 10713 10723 10729 10737 10744 10751 10758 10766 10773
10760 10756 10752 10747 10742 10735 10730 10725 10721 10716 10712 10708 10705 10703 10701 10698 10694 10689 10685 10682 10677 10672 10667 10662 10657 10652 10647 10642 10637 10631 10625 10620 10614 10608 10601 10595 10588 10583 10577 10571 10566 10563 10562 10561 10560 10559 10559 10559 10558 10557 10558 10558 10558 10557 10557 10559 10563 10566 10569 10572 10574 10576 10582 10589 10595 10601 10609 10622 10637 10646 10648 10652 10666 10680 10686 10693 10705 10716 10723 10730 10737 10743 10751 10758 10766
10751 10747 10743 10738 10732 10725 10721 10716 10711 10706 10702 10699 10697 10696 10695 10691 10686 10681 10677 10672 10667 10662 10657 10653 10647 10643 10638 10633 10628 10622 10617 10611 10604 10597 10590 10583 10578 10573 10568 10563 10559 10556 10554 10553 10552 10551 10551 10551 10551 10550 10550 10550 10550 10550 10550 10551 10554 10557 10560 10562 10564 10567 10572 10578 10584 10591 10600 10609 10623 10634 10638 10641 10654 10669 10676 10685 10698 10708 10715 10722 10729 10736 10744 10751 10758